This demonstration page uses our WeatherBlox Daily Observations layout. Learn more.

39.92423, -83.80882

Hourly Observations for December 12, 2018

Temp ( °F °C ) Dew Point ( °F °C ) Humidity (%) Winds ( mph kmh ) Pressure ( in mb ) Visibility ( mi km ) Precip ( " mm )
12:56 am 00:56 Clear 25 -3.9 23 -5 92 92 SSE 3 6 30.13 1020 10 16.0934 0 0
1:56 am 01:56 Clear 29 -1.7 25 -3.9 85 85 SE 5 7 30.11 1020 10 16.0934 0 0
2:56 am 02:56 Clear 29 -1.7 25 -3.9 85 85 SSE 5 7 30.12 1020 10 16.0934 0 0
3:56 am 03:56 Clear 28 -2.2 24 -4.4 85 85 SE 6 9 30.11 1020 10 16.0934 0 0
4:56 am 04:56 Clear 29 -1.7 25 -3.9 85 85 SSE 6 9 30.09 1019 10 16.0934 0 0
5:56 am 05:56 Clear 30 -1.1 25 -3.9 82 82 S 6 9 30.08 1019 10 16.0934 0 0
6:56 am 06:56 Clear 31 -0.6 26 -3.3 82 82 S 7 11 30.07 1018 10 16.0934 0 0
7:56 am 07:56 Sunny 31 -0.6 26 -3.3 82 82 SSE 9 15 30.05 1018 10 16.0934 0 0
8:56 am 08:56 Partly Cloudy 32 0 26 -3.3 79 79 S 10 17 30.04 1017 10 16.0934 0 0
9:56 am 09:56 Mostly Sunny 34 1.1 26 -3.3 73 73 S 9 15 30.03 1017 10 16.0934 0 0
10:56 am 10:56 Sunny 37 2.8 27 -2.8 67 67 S 10 17 30.01 1016 10 16.0934 0 0
11:56 am 11:56 Sunny 41 5 28 -2.2 60 60 S 13 20 29.96 1015 10 16.0934 0 0
12:56 pm 12:56 Sunny 42 5.6 29 -1.7 60 60 SSW 13 20 29.94 1014 10 16.0934 0 0
1:56 pm 13:56 Cloudy 43 6.1 30 -1.1 60 60 SSW 8 13 29.93 1013 10 16.0934 0 0
2:56 pm 14:56 Cloudy 43 6.1 30 -1.1 60 60 SSW 9 15 29.93 1013 10 16.0934 0 0
3:56 pm 15:56 Cloudy 43 6.1 31 -0.6 63 63 S 7 11 29.93 1013 10 16.0934 0 0
4:56 pm 16:56 Sunny 43 6.1 31 -0.6 63 63 S 5 7 29.93 1014 10 16.0934 0 0
5:56 pm 17:56 Clear 41 5 30 -1.1 65 65 S 5 7 29.95 1014 10 16.0934 0 0
6:56 pm 18:56 Clear 38 3.3 30 -1.1 73 73 SSE 6 9 29.96 1015 10 16.0934 0 0
7:56 pm 19:56 Mostly Cloudy 40 4.4 31 -0.6 70 70 S 8 13 29.97 1015 10 16.0934 0 0
8:56 pm 20:56 Cloudy 40 4.4 32 0 73 73 SSW 9 15 29.98 1015 10 16.0934 0 0
9:56 pm 21:56 Mostly Cloudy 40 4.4 32 0 73 73 SSW 9 15 29.99 1016 10 16.0934 0 0
10:56 pm 22:56 Mostly Clear 39 3.9 33 0.6 79 79 SSW 9 15 29.99 1016 10 16.0934 0 0
11:56 pm 23:56 Mostly Cloudy 38 3.3 33 0.6 83 83 SW 7 11 30 1016 10 16.0934 0 0

Powered by AerisWeather